Home   Weather   Vaughan   Past weeks

Flag for Canada Past Weather in Vaughan, Ontario, Canada — Yesterday and Last 2 Weeks

Now
37 °F

Mostly cloudy.


Feels Like: 34 °F
Forecast: 36 / 42 °F
Wind: 5 mph from East

Location: Toronto Buttonville

Current Time: Jan 20, 2017 at 7:36:08 pm

Latest Report: Jan 20, 2017 at 7:00 pm


Visibility: 8 mi

Pressure: 29.77 "Hg

Humidity: 93%

Dew Point: 36 °F

Location of VaughanLocation

Past Weather in Vaughan — Graph

°F

Vaughan Temperature Yesterday

Maximum temperature yesterday: 37 °F (at 12:00 am)
Minimum temperature yesterday: 34 °F (at 9:00 pm)
Average temperature yesterday: 36 °F

High & Low Weather Summary for the Past Weeks

 TemperatureHumidityPressure
High46 °F (Jan 12, 3:00 am)100% (Jan 10, 6:06 pm)30.81 "Hg (Jan 10, 6:06 pm)
Low7 °F (Jan 7, 5:00 am)48% (Jan 16, 4:00 pm)29.45 "Hg (Jan 11, 12:00 am)
Average27 °F78%30.13 "Hg
* Reported Jan 5 6:00 pm — Jan 20 6:00 pm, Vaughan, Weather by CustomWeather, © 2017

Note: Actual official high and low records may vary slightly from our data, if they occured in-between our weather recording intervals... More about our weather records

Advertising

Vaughan Weather History for the Previous 24 Hours

Scroll right to see more
 ConditionsComfort  
Time TempWeatherWind HumidityBarometerVisibility
6:00 pm
Fri, Jan 20
37 °FMostly cloudy.6 mph87%29.76 "Hg8 mi
5:00 pm37 °FMostly cloudy.9 mph87%29.75 "Hg8 mi
4:00 pm37 °FMostly cloudy.8 mph87%29.75 "Hg8 mi
3:00 pm37 °FLow clouds.12 mph87%29.74 "Hg10 mi
2:00 pm37 °FLow clouds.13 mph87%29.75 "Hg10 mi
1:00 pm36 °FLow clouds.9 mph93%29.77 "Hg10 mi
12:00 pm37 °FLow clouds.13 mph87%29.79 "Hg8 mi
11:20 am37 °FLow clouds.13 mph87%29.81 "Hg8 mi
10:00 am36 °FOvercast.6 mph87%29.84 "Hg12 mi
9:00 am36 °FOvercast.8 mph87%29.83 "Hg12 mi
8:25 am36 °FOvercast.10 mph93%29.84 "Hg7 mi
8:00 am34 °FFog.5 mph93%29.85 "Hg5 mi
7:36 am34 °FLow clouds.5 mph93%29.85 "Hg7 mi
7:00 am34 °FMostly cloudy.No wind93%29.86 "Hg8 mi
6:46 am34 °FMostly cloudy.3 mph93%29.86 "Hg8 mi
6:00 am34 °FLow clouds.5 mph93%29.88 "Hg10 mi
5:00 am34 °FLow clouds.6 mph93%29.90 "Hg8 mi
4:00 am34 °FLow clouds.5 mph93%29.92 "Hg8 mi
3:00 am34 °FLow clouds.5 mph93%29.94 "Hg10 mi
2:00 am34 °FLow clouds.5 mph87%29.95 "Hg10 mi
1:00 am34 °FLow clouds.6 mph87%29.97 "Hg8 mi
12:00 am34 °FLow clouds.6 mph87%29.98 "Hg8 mi
11:00 pm
Thu, Jan 19
34 °FLow clouds.6 mph87%29.99 "Hg8 mi
10:00 pm34 °FOvercast.6 mph87%30.00 "Hg8 mi
9:00 pm34 °FOvercast.3 mph87%30.00 "Hg8 mi
8:00 pm36 °FOvercast.3 mph81%30.02 "Hg8 mi
7:00 pm36 °FOvercast.6 mph81%30.04 "Hg8 mi
Weather by CustomWeather, © 2017

See weather overviewHow to use our weather pages